ROMMA est une association bénévole à but non lucratif. Votre soutien est indispensable : ADHERER à ROMMA ou FAIRE un DON

Val-d'Isère - (73, Savoie)

Haute-Maurienne (1850 m)   Longitude: 6° 58' 52'' E   Latitude: 45° 26' 53'' N Station partenaire n°93
 

Détail journalier du     <<     >>

Température Precipitation Humidité Vent Dir Rafale Dir. rafale Ensol.
Heure (°C) (mm) (%) (km/h) (km/h) (min)
01:00 -7.10719E16ESE0
02:00 -7.30725E16E0
03:00 -8.30746E16E0
04:00 -9.10753SE15E0
05:00 -9.40745ESE19E0
06:00 -9.60713ESE10ESE0
07:00 -9.20702ESE10ESE0
08:00 -7.70702N8NE60
09:00 -6.10646E16ESE60
10:00 -2.10562SE6NO60
11:00 2.70455SE15ESE60
12:00 4.70.2386ESE19E60
13:00 7.70288ESE19E60
14:00 7.50405E16OSO60
15:00 6.804111NO34NO60
16:00 8.20336E32NNO60
17:00 6.80375NNE15NNO60
18:00 5.30457ENE18E30
19:00 4.20534ENE16NO0
20:00 3.60585N18ONO0
21:00 3.00606NNE24NNO0
22:00 2.50605ENE11E0
23:00 2.60584E13NO0
minuit 1.90595E15NNE0

Graphique du 05-04-2019

 

Serveur OMMA